sat.trackr.live / text

‹ back to catalog

STARLINK-37739

NORAD 69233 · 2026-115Y

PAYLOAD ACTIVE UNKNOWN

§ Identity

Operator
Country
US
Launch date
2026-05-26
Launch site
AFWTR
Launch vehicle
Mass (kg)
RCS (m²)

Purposes: comms

External: N2YO · Heavens-Above · Gunter

§ Orbital elements

Epoch: 2026-09-19T23:24:01.454976Z

Period
93.91 min
Inclination
97.2847°
Eccentricity
0.0001074
Mean motion
15.33457201 rev/d
Perigee alt
464.8 km
Apogee alt
466.2 km
Semi-major
6,843.6 km
B*
5.3925e-4
RAAN
279.1338°
Arg perigee
103.6162°
Mean anomaly
256.5200°
Rev number
1,921

§ Raw data

STARLINK-377391 69233U 26115Y   26262.97501684  .00017381  00000+0  53925-3 0  99922 69233  97.2847 279.1338 0001074 103.6162 256.5200 15.33457201 19210

JSON: /api/v1/satellites/69233 · /tle

For live sub-satellite position, see the globe view (requires WebGL).

§ Visibility from observer

Set your observer location to see the next 7 days of passes ≥ 10°. The values pass through the URL so the page stays shareable.

No JS? Fill the form by hand. The geolocation button needs JavaScript.